TIME,DELAY(SENSOR),PRES,OXYGEN,RAWTEMP,T(OPTODE),TCPHASE,FLUOR,BETA(BETA700),BETA(BETA412),BETA(BETA440),CDOM,C(CSC),ED(ED411.90),ED(ED443.80),ED(ED489.40),ED(ED554.70),LU(LU412.20),LU(LU443.80),LU(LU489.40),LU(LU555.00),COMP,TILTX,TILTY,CHECK
1341873199,5806,871.1699829101562000,175.1365051269531200,450.0156860351562500,9.0723972320556640,38.6829299926757800,53,105,99,78,81,14557,2146951908,2147514240,2147288338,2147510738,2147091620,2146927844,2147707803,2147118939,3219,-2,8,57915
1341876796,5807,989.7700195312500000,215.2615051269531200,516.2252807617188000,7.0252251625061035,37.2758293151855500,53,102,99,79,81,14551,2146956233,2147518838,2147293019,2147523419,2147092196,2146920237,2147720548,2147118061,2396,-1,8,60651
1341880396,5805,1029.3499755859375000,229.0540924072265600,530.5244750976562000,6.5792789459228520,36.7649803161621100,52,103,101,80,81,14548,2146954605,2147517248,2147296109,2147525613,2147094025,2146926902,2147724397,2147119597,529,-1,8,41659
1341883996,5805,1030.8800048828125000,231.7355957031250000,530.8486938476562000,6.5691490173339840,36.6273002624511700,52,102,103,80,82,14540,2146954011,2147518290,2147295606,2147527899,2147094153,2146921682,2147725257,2147119588,2774,-1,8,48400
1341887596,5806,1038.2099609375000000,232.2008972167968800,531.9191284179688000,6.5357041358947750,36.6220817565918000,52,102,102,79,82,14541,2146955318,2147518985,2147298998,2147528996,2147089938,2146922011,2147723995,2147115730,401,-2,8,33345
1341891196,5802,1040.8499755859375000,232.2008972167968800,532.9528808593750000,6.5033950805664060,36.6404609680175800,53,103,100,80,81,14543,2146954249,2147518948,2147295350,2147529993,2147095076,2146920502,2147723035,2147117558,3296,-1,8,15986
1341894796,5804,1047.0100097656250000,231.7415008544922000,530.7940063476562000,6.5708580017089840,36.6264190673828100,53,106,102,80,82,14533,2146953398,2147519945,2147296310,2147526747,2147091401,2146921874,2147724452,2147116772,2263,-2,8,64719
1341898396,5805,1041.0999755859375000,230.1755065917968800,529.8732910156250000,6.5996189117431640,36.6931800842285160,52,103,101,81,82,14532,2146954386,2147517595,2147295634,2147524342,2147095872,2146920000,2147723035,2147116498,460,-1,8,61600
1341901996,5805,1038.9399414062500000,230.6927032470703000,530.7509155273438000,6.5722060203552250,36.6813583374023440,52,103,100,79,82,14533,2146952521,2147517540,2147296777,2147523977,2147089874,2146923099,2147724608,2147118509,2735,-1,8,50160
1341905596,5804,1017.4500122070312000,225.3851013183593800,524.9771728515625000,6.7524552345275880,36.8649597167968750,52,100,101,80,81,14537,2146955190,2147516827,2147296502,2147524461,2147091392,2146923474,2147720073,2147119040,3497,-1,8,40863
1341909196,5807,1021.0599975585938000,225.2046966552734400,524.5753784179688000,6.7649898529052730,36.8676300048828100,53,101,99,78,82,14538,2146954998,2147519771,2147296201,2147522267,2147092928,2146922294,2147723492,2147119972,3511,-2,8,60474
1341912796,5807,1019.9699707031250000,224.2767028808593800,525.0659790039062000,6.7496857643127440,36.9270401000976560,53,106,100,80,82,14538,2146955154,2147518354,2147298441,2147525769,2147092553,2146920493,2147719936,2147121325,26,-1,8,27657
1341916396,5806,1011.3599853515625000,225.0881958007812500,526.1566162109375000,6.7156558036804200,36.9023017883300800,52,104,100,79,82,14534,2146954752,2147517522,2147295451,2147529636,2147094528,2146914185,2147723995,2147117988,2723,-2,8,13791
1341919996,5804,1016.0999755859375000,226.7695007324218800,525.8931274414062000,6.7238807678222660,36.8059883117675800,52,102,101,80,81,14538,2146955245,2147520905,2147294400,2147528100,2147092864,2146918454,2147724251,2147117577,2726,-1,8,39734
1341923596,5802,1012.3400268554688000,227.5146942138672000,527.1085205078125000,6.6859469413757320,36.7871589660644500,51,104,99,80,82,14536,2146955035,2147515172,2147295168,2147525549,2147092004,2146921673,2147721206,2147119168,3470,-1,8,60805
1341927196,5806,1019.8400268554688000,228.3262023925781200,527.6212158203125000,6.6699428558349610,36.7520904541015600,52,103,100,80,82,14535,2146954349,2147518848,2147296740,2147528009,2147093522,2146916726,2147725659,2147117513,368,-1,8,17655
1341930796,5805,1019.2299804687500000,227.5254058837890600,526.7747802734375000,6.6963620185852050,36.7806205749511700,52,104,100,79,82,14535,2146956736,2147521545,2147295533,2147525165,2147092370,2146920027,2147721261,2147118180,180,-1,8,41433
1341934396,5805,1027.0600585937500000,226.2879028320312500,525.5333862304688000,6.7351031303405760,36.8260803222656250,52,102,100,79,82,14536,2146959085,2147519488,2147294747,2147528182,2147093705,2146916123,2147725504,2147114660,3293,-1,8,9274
1341937996,5804,1025.1999511718750000,225.9913024902343800,525.2078857421875000,6.7452578544616700,36.8361701965332000,52,106,100,80,81,14538,2146954843,2147516873,2147297014,2147525979,2147090313,2146919744,2147721206,2147116489,3030,-1,8,22381
1341941596,5806,1032.1099853515625000,223.5157012939453000,524.0720825195312000,6.7806887626647950,36.9517402648925800,52,103,100,80,81,14515,2146957842,2147519213,2147296457,2147524864,2147092818,2146917979,2147723282,2147121600,327,-1,8,51815
1341945196,5802,1027.5500488281250000,224.6143951416015600,524.4603881835938000,6.7685770988464355,36.8977317810058600,53,103,101,79,81,14521,2146954450,2147516690,2147295771,2147524452,2147095140,2146922166,2147723465,2147119222,2636,-1,8,45147
1341948796,5805,1026.9399414062500000,225.5281982421875000,525.4393920898438000,6.7380352020263670,36.8656082153320300,52,107,99,79,82,14519,2146954276,2147515556,2147296329,2147526610,2147092443,2146922962,2147723328,2147115574,3400,-1,8,19675
1341952396,5806,1031.0799560546875000,223.8930969238281200,523.1265258789062000,6.8101840019226070,36.9138717651367200,52,104,101,80,82,14517,2146954084,2147515968,2147296548,2147524397,2147094656,2146916681,2147720850,2147117065,339,-1,8,33423
1341955996,5805,1027.0899658203125000,222.6342010498047000,523.8182983398438000,6.7886071205139160,36.9963302612304700,52,103,100,81,82,14522,2146952338,2147517056,2147296292,2147524260,2147095113,2146921453,2147720749,2147119113,2913,-1,8,15842
1341959596,5807,1025.4100341796875000,222.6443023681640600,524.1010742187500000,6.7797870635986330,37.0000801086425800,52,102,99,79,82,14511,2146956589,2147515593,2147296777,2147526921,2147093549,2146916882,2147723968,2147117604,197,-1,8,34536
1341963196,5805,1027.6600341796875000,224.0034027099609400,524.2135009765625000,6.7762789726257320,36.9275093078613300,53,104,100,80,82,14521,2146954496,2147519798,2147296210,2147524269,2147093440,2146918080,2147718016,2147118820,201,-1,8,23258
1341966796,5806,1031.9300537109375000,223.1268005371093800,523.8712158203125000,6.7869567871093750,36.9689407348632800,52,101,99,79,81,14518,2146955666,2147515501,2147298157,2147523309,2147095341,2146920557,2147721682,2147119140,3134,-1,8,35635
1341970396,5806,1030.1300048828125000,225.0467071533203000,524.2351074218750000,6.7756052017211910,36.8707695007324200,51,105,101,80,82,14518,2146952978,2147517796,2147295204,2147523739,2147090642,2146918546,2147724736,2147119186,217,-1,8,65506
1341973996,5802,1027.5300292968750000,225.1757965087890600,525.3696899414062000,6.7402110099792480,36.8830108642578100,53,103,100,79,81,14515,2146954322,2147519616,2147297700,2147527670,2147095186,2146919524,2147719963,2147117440,3518,-1,8,42969
1341977596,5804,1031.6400146484375000,223.2200012207031200,525.5820922851562000,6.7335829734802250,36.9947814941406250,52,102,100,80,81,14517,2146956928,2147516297,2147295917,2147523254,2147092608,2146917302,2147724342,2147117622,2606,-1,8,49659
1341981196,5807,1025.5799560546875000,226.9286041259765600,526.6237182617188000,6.7010779380798340,36.8104896545410160,52,104,100,79,82,14516,2146955565,2147517156,2147295670,2147528667,2147091602,2146920749,2147725906,2147115904,3293,-1,8,55828
1341984796,5805,1028.6800537109375000,227.3614959716797000,527.0383300781250000,6.6881370544433590,36.7939910888671900,52,102,103,80,82,14512,2146956105,2147516717,2147294582,2147525622,2147093842,2146916297,2147723739,2147121554,2638,-1,8,55162
1341988396,5804,1030.6600341796875000,227.7879943847656200,527.5095214843750000,6.6734290122985840,36.7792816162109400,53,104,100,78,82,14517,2146957229,2147518976,2147297472,2147522450,2147093110,2146917284,2147719945,2147118692,3287,-1,8,58288
1341991996,5808,1027.1400146484375000,227.0093994140625000,526.7196044921875000,6.6980857849121090,36.8077201843261700,53,104,100,80,82,14515,2146956397,2147517467,2147293787,2147526491,2147094308,2146918720,2147721892,2147116973,3343,-1,8,6698
1341995596,5806,1031.5300292968750000,227.5303955078125000,527.2025756835938000,6.6830101013183590,36.7881889343261700,53,102,101,80,82,14515,2146954825,2147517001,2147294957,2147526061,2147095241,2146916827,2147723401,2147118610,3431,-1,8,42831
1341999196,5808,1032.4399414062500000,226.9329986572265600,526.8646240234375000,6.6935620307922360,36.8143806457519500,52,104,101,80,82,14513,2146953453,2147518061,2147294317,2147523337,2147091986,2146919350,2147722358,2147112877,358,-1,8,24457
1342002796,5806,1030.2500000000000000,226.7635955810547000,527.2177124023438000,6.6825370788574220,36.8294296264648440,52,103,100,80,82,14515,2146956726,2147517897,2147293897,2147527707,2147090898,2146920512,2147720548,2147118244,199,-1,8,1789
1342006396,5804,1017.0000000000000000,219.1528930664062500,518.0623779296875000,6.9680118560791020,37.0883903503418000,53,101,102,79,81,14515,2146955008,2147516544,2147293942,2147522624,2147095561,2146922276,2147724032,2147116891,3513,-1,8,44043
1342009996,5806,1014.1099853515625000,215.9533996582031200,516.4625244140625000,7.0178380012512210,37.2408409118652340,52,102,100,79,82,14512,2146954825,2147516041,2147294454,2147523465,2147091291,2146918592,2147715968,2147118537,269,-1,8,59721
1342013596,5807,1018.1599731445312000,215.7816009521484400,514.5031127929688000,7.0788350105285645,37.2167701721191400,53,102,101,78,80,14514,2146951442,2147517696,2147296630,2147524178,2147090898,2146921810,2147722569,2147116470,641,-1,8,29975
1342014655,5803,1020.1500244140625000,215.3177032470703000,513.7946166992188000,7.1008849143981930,37.2301406860351560,52,102,100,82,81,14529,2146954130,2147517586,2147296493,2147524288,2147092342,2146920512,2147717403,2147118518,466,-1,8,53854
